Regional Weather Roundup
Issued by NWS

Home | Current Version | Previous Version | Text Only | Print | Product List | Glossary Off
Versions: 1 2 3 4 5 6 7 8 9 10 11 12 13 14 15 16 17 18 19 20 21 22 23 24 25 26 27 28 29 30 31 32 33 34 35 36 37 38 39 40 41 42 43 44 45 46 47 48 49 50

714
ASUS44 KMEG 241400
RWRTN
TENNESSEE HOURLY STATE WEATHER ROUNDUP
NATIONAL WEATHER SERVICE MEMPHIS TN
900 AM CDT WED AUG 24 2016

TNZ002-004-019-021-049-052-054-088>092-241500-
WEST TENNESSEE

CITY           SKY/WX    TMP DP  RH WIND       PRES   REMARKS
MEMPHIS INTL   MOSUNNY   86  75  69 SW6       30.17F HX  95
NWS MEMPHIS      N/A     83 N/A N/A MISG        N/A
JACKSON        MOSUNNY   81  76  84 S6        30.18F
DYERSBURG      MOSUNNY   84  75  74 MISG      30.17S HX  92
UNION CITY     SUNNY     79  77  94 SW6       30.16S
PARIS          SUNNY     81  75  83 S6        30.19S
$$

TNZ008-025-027-028-033-062-065-066-241500-
NORTH MIDDLE TENNESSEE

CITY           SKY/WX    TMP DP  RH WIND       PRES   REMARKS
NASHVILLE      CLOUDY    79  70  74 S6        30.23S
CLARKSVILLE    MOSUNNY   79  72  79 SW8       30.20R
SMYRNA         SUNNY     77  70  78 MISG      30.24R
COOKEVILLE     SUNNY     79  72  78 S5        30.25S
CROSSVILLE     CLOUDY    76  67  73 S8        30.31S
$$

TNZ061-075-076-078-094-096-097-241500-
SOUTH MIDDLE TENNESSEE

CITY           SKY/WX    TMP DP  RH WIND       PRES   REMARKS
TULLAHOMA      SUNNY     79  70  73 S3        30.27S
WINCHESTER     SUNNY     81  72  74 SE3       30.25F
MCMINNVILLE    SUNNY     81  75  83 CALM      30.26S
COLUMBIA       SUNNY    N/A N/A N/A CALM      30.21S
SHELBYVILLE    SUNNY     81  73  78 S3        30.25S
$$

TNZ017-018-042-046-047-241500-
NORTHEAST TENNESSEE

CITY           SKY/WX    TMP DP  RH WIND       PRES   REMARKS
TRI CITIES     CLOUDY    71  65  81 CALM      30.31F
$$

TNZ012-013-036-069-073-074-241500-
CENTRAL EAST TENNESSEE

CITY           SKY/WX    TMP DP  RH WIND       PRES   REMARKS
KNOXVILLE      CLOUDY    78  68  71 NW5       30.27
GATLINBURG     PTSUNNY   75  66  73 CALM      30.28R
$$

TNZ083-085-099-241500-
SOUTHEAST TENNESSEE

CITY           SKY/WX    TMP DP  RH WIND       PRES   REMARKS
CHATTANOOGA    CLOUDY    78  69  73 W3        30.27R
$$

SKY/WX REPORTED AS FAIR MEANS FEW OR NO CLOUDS BELOW
12 THOUSAND FEET.





USA.gov is the U.S. government's official web portal to all federal, state and local government web resources and services.